Hoquiam, WA
on Thursday, December 13, 2012

Thursday
Previous Day Next Day
Daily Summary
 ActualAverageRecord
Temperature
Mean Temperature °F 41°F  
Max Temperature 44°F 46°F 59°F (1977)
Min Temperature 33°F 37°F 21°F (1972)
Degree Days
Heating Degree Days 26 24  
Month to date heating degree days 299  
Cooling Degree Days 0 0  
Month to date cooling degree days 0  
Year to date cooling degree days 23  
Moisture
Dew Point 38°F   
Average Humidity 94    
Maximum Humidity 100    
Minimum Humidity 85    
Precipitation
Precipitation 0.30 in 0.32 in 2.36 in (2001)
Month to date precipitation 4.26  
Year to date precipitation 61.85  
Wind
Wind Speed 7 mph   
Max Wind Speed 13 mph   
Max Gust Speed mph   
Visibility 7 miles   
Events Fog , Rain   

Key: T is trace of precipitation, MM is missing value
Source: NWS Daily Summary
Time(PST)TemperatureDew PointHumidity Pressure Visibility Wind DirectionWind SpeedGust SpeedPrecipitationEvents Conditions
12:33 AM 35.6°F 33.8°F 93% 30.02 in 5.0 miles NE 8.1 mph - N/A   Overcast
12:45 AM 35.6°F 33.8°F 93% 30.02 in 1.5 miles ENE 8.1 mph - N/A   Overcast
12:53 AM 35.1°F 34.0°F 96% 30.03 in 1.0 miles NE 6.9 mph - N/A   Overcast
1:15 AM 35.6°F 33.8°F 93% 30.02 in 2.0 miles NE 6.9 mph - N/A   Overcast
1:23 AM 35.6°F 33.8°F 93% 30.02 in 5.0 miles NE 6.9 mph - N/A   Mostly Cloudy
1:53 AM 34.0°F 34.0°F 100% 30.04 in 3.0 miles ENE 3.5 mph - N/A   Mostly Cloudy
2:53 AM 34.0°F 33.1°F 96% 30.04 in 7.0 miles ENE 5.8 mph - N/A   Overcast
3:09 AM 33.8°F 33.8°F 100% 30.04 in 1.5 miles ENE 8.1 mph - N/A   Overcast
3:17 AM 33.8°F 33.8°F 100% 30.04 in 0.5 miles ENE 4.6 mph - N/A Fog Fog
3:25 AM 33.8°F 33.8°F 100% 30.03 in 2.5 miles ENE 5.8 mph - N/A   Overcast
3:32 AM 33.8°F 33.8°F 100% 30.03 in 6.0 miles ENE 4.6 mph - N/A   Overcast
3:51 AM 33.8°F 33.8°F 100% 30.03 in 2.0 miles ENE 6.9 mph - N/A   Overcast
3:53 AM 34.0°F 33.1°F 96% 30.04 in 2.5 miles ENE 5.8 mph - N/A   Overcast
4:00 AM 33.8°F 33.8°F 100% 30.03 in 5.0 miles ENE 5.8 mph - N/A   Overcast
4:53 AM 35.1°F 35.1°F 100% 30.05 in 7.0 miles East 8.1 mph - N/A   Overcast
5:53 AM 36.0°F 35.1°F 97% 30.02 in 10.0 miles ENE 8.1 mph - N/A   Overcast
6:53 AM 36.0°F 36.0°F 100% 30.03 in 10.0 miles ENE 6.9 mph - N/A   Overcast
7:53 AM 37.0°F 36.0°F 96% 30.01 in 5.0 miles ENE 10.4 mph - N/A   Scattered Clouds
8:01 AM 37.4°F 35.6°F 93% 30.00 in 3.0 miles ENE 9.2 mph - N/A   Scattered Clouds
8:53 AM 37.0°F 36.0°F 96% 30.01 in 6.0 miles NE 11.5 mph - N/A   Clear
9:53 AM 41.0°F 39.0°F 93% 30.00 in 10.0 miles ENE 6.9 mph - N/A   Partly Cloudy
10:53 AM 42.1°F 39.0°F 89% 29.99 in 10.0 miles ENE 5.8 mph - N/A   Overcast
11:53 AM 43.0°F 39.0°F 86% 29.96 in 10.0 miles ENE 6.9 mph - N/A   Overcast
12:53 PM 44.1°F 39.9°F 85% 29.94 in 9.0 miles ENE 5.8 mph - N/A   Overcast
1:42 PM 42.8°F 39.2°F 87% 29.90 in 10.0 miles NE 3.5 mph - 0.01 in   Overcast
1:53 PM 43.0°F 41.0°F 93% 29.91 in 10.0 miles ENE 4.6 mph - 0.01 in   Overcast
2:38 PM 42.8°F 41.0°F 93% 29.87 in 10.0 miles East 8.1 mph - N/A   Overcast
3:08 PM 44.6°F 41.0°F 87% 29.87 in 10.0 miles ENE 8.1 mph - N/A Rain Light Rain
4:42 PM 44.6°F 41.0°F 87% 29.84 in 10.0 miles SE 10.4 mph - 0.01 in   Overcast
4:53 PM 44.6°F 41.0°F 87% 29.84 in 10.0 miles SE 11.5 mph - N/A   Overcast
5:38 PM 44.6°F 41.0°F 87% 29.83 in 7.0 miles SE 9.2 mph - 0.02 in Rain Light Rain
5:53 PM 43.0°F 41.0°F 93% 29.84 in 6.0 miles SE 10.4 mph - 0.03 in Rain Light Rain
6:25 PM 42.8°F 41.0°F 93% 29.82 in 6.0 miles ESE 6.9 mph - 0.04 in Rain Light Rain
6:53 PM 43.0°F 41.0°F 93% 29.83 in 7.0 miles ESE 8.1 mph - 0.08 in Rain Light Rain
7:53 PM 42.1°F 41.0°F 96% 29.82 in 8.0 miles East 6.9 mph - 0.06 in Rain Light Rain
8:53 PM 42.1°F 41.0°F 96% 29.82 in 6.0 miles East 8.1 mph - 0.05 in Rain Light Rain
9:14 PM 42.8°F 41.0°F 93% 29.80 in 10.0 miles East 8.1 mph - 0.01 in Rain Light Rain
9:31 PM 42.8°F 41.0°F 93% 29.80 in 7.0 miles East 6.9 mph - 0.03 in Rain Light Rain
9:53 PM 42.8°F 41.0°F 93% 29.80 in 7.0 miles East 6.9 mph - N/A Rain Light Rain
10:24 PM 42.8°F 41.0°F 93% 29.79 in 10.0 miles East 10.4 mph - 0.02 in Rain Light Rain
10:35 PM 42.8°F 41.0°F 93% 29.79 in 10.0 miles ENE 9.2 mph - 0.02 in Rain Light Rain
10:53 PM 42.1°F 41.0°F 96% 29.80 in 9.0 miles East 9.2 mph - 0.03 in Rain Light Rain
11:11 PM 42.8°F 41.0°F 93% 29.79 in 7.0 miles East 10.4 mph - 0.02 in Rain Light Rain
11:34 PM 42.8°F 41.0°F 93% 29.78 in 8.0 miles East 9.2 mph - 0.03 in Rain Light Rain
11:50 PM 42.8°F 41.0°F 93% 29.78 in 8.0 miles ESE 12.7 mph - 0.04 in Rain Light Rain
11:53 PM 43.0°F 41.0°F 93% 29.79 in 8.0 miles ESE 11.5 mph - 0.04 in Rain Light Rain
Moon Phase
Dec. 13 Dec. 20 Dec. 28 Jan. 04 Jan. 11
Sunrise:07:53 AM (PST) Moon Rise:08:06 AM (PST)12/13
Sunset:04:26 PM (PST) Moon Set:05:17 PM (PST)12/13

Copyright © 2014 The Weather Underground, Inc.